"read_dt","SO2 (ppb)","flags","PMT voltage (V)","lamp voltage (V)","lamp intensity (Hz)","internal temp (C)","react chamber temp (C)","sample flow (l/min)","pres (mmHg)","SO2 bkg (ppb)","SO2 coefficient"
2015-11-26 00:00:00,1848E-3,5C000400,-0724,0831,12303,026.6,045.4,0.258,759.5,01.16,0.508
2015-11-26 00:01:00,1740E-3,5C000400,-0724,0831,12186,026.6,045.4,0.258,759.3,01.16,0.508
2015-11-26 00:02:00,1720E-3,5C000400,-0724,0830,12149,026.6,045.4,0.259,759.3,01.16,0.508
2015-11-26 00:03:00,1867E-3,5C000400,-0724,0831,12187,026.6,045.4,0.258,759.4,01.16,0.508
2015-11-26 00:04:00,1863E-3,5C000400,-0724,0831,12017,026.7,045.4,0.258,759.5,01.16,0.508
2015-11-26 00:05:00,1770E-3,5C000400,-0724,0830,12118,026.7,045.4,0.258,759.6,01.16,0.508
2015-11-26 00:06:00,1744E-3,5C000400,-0724,0830,12187,026.7,045.4,0.258,759.5,01.16,0.508
2015-11-26 00:07:00,1871E-3,5C000400,-0724,0830,12181,026.6,045.4,0.259,759.4,01.16,0.508
2015-11-26 00:08:00,1675E-3,5C000400,-0724,0831,12257,026.7,045.4,0.259,759.6,01.16,0.508
2015-11-26 00:09:00,1790E-3,5C000400,-0724,0831,12295,026.6,045.4,0.258,759.5,01.16,0.508
2015-11-26 00:10:00,1654E-3,5C000400,-0724,0829,12204,026.6,045.4,0.258,759.4,01.16,0.508
2015-11-26 00:11:00,1846E-3,5C000400,-0724,0830,12089,026.6,045.4,0.258,759.4,01.16,0.508
2015-11-26 00:12:00,1789E-3,5C000400,-0724,0830,12014,026.6,045.4,0.258,759.3,01.16,0.508
2015-11-26 00:13:00,1840E-3,5C000400,-0724,0830,12176,026.7,045.4,0.259,759.4,01.16,0.508
2015-11-26 00:14:00,1772E-3,5C000400,-0724,0831,12051,026.7,045.4,0.258,759.5,01.16,0.508
2015-11-26 00:15:00,1743E-3,5C000400,-0724,0831,12282,026.7,045.4,0.258,759.3,01.16,0.508
2015-11-26 00:16:00,1728E-3,5C000400,-0724,0830,12238,026.7,045.4,0.258,759.2,01.16,0.508
2015-11-26 00:17:00,1681E-3,5C000400,-0724,0830,12148,026.7,045.4,0.258,759.3,01.16,0.508
2015-11-26 00:18:00,1772E-3,5C000400,-0724,0831,12181,026.7,045.4,0.259,759.3,01.16,0.508
2015-11-26 00:19:00,1852E-3,5C000400,-0724,0830,12348,026.7,045.4,0.258,759.3,01.16,0.508
2015-11-26 00:20:00,1806E-3,5C000400,-0724,0831,12235,026.7,045.4,0.258,759.3,01.16,0.508
2015-11-26 00:21:00,1795E-3,5C000400,-0724,0831,12162,026.7,045.4,0.258,759.5,01.16,0.508
2015-11-26 00:22:00,1772E-3,5C000400,-0724,0830,12207,026.7,045.4,0.258,759.4,01.16,0.508
2015-11-26 00:23:00,1616E-3,5C000400,-0724,0831,12154,026.7,045.4,0.258,759.3,01.16,0.508
2015-11-26 00:24:00,1771E-3,5C000400,-0724,0831,12135,026.7,045.4,0.258,759.2,01.16,0.508
2015-11-26 00:25:00,1708E-3,5C000400,-0724,0831,12242,026.7,045.4,0.258,759.4,01.16,0.508
2015-11-26 00:26:00,1771E-3,5C000400,-0724,0831,12174,026.7,045.4,0.258,759.5,01.16,0.508
2015-11-26 00:27:00,1779E-3,5C000400,-0724,0830,12125,026.7,045.4,0.258,759.5,01.16,0.508
2015-11-26 00:28:00,1824E-3,5C000400,-0724,0831,12237,026.7,045.4,0.258,759.4,01.16,0.508
2015-11-26 00:29:00,1894E-3,5C000400,-0724,0831,11990,026.7,045.4,0.258,759.5,01.16,0.508
2015-11-26 00:30:00,1746E-3,5C000400,-0724,0830,12186,026.7,045.4,0.258,759.5,01.16,0.508
2015-11-26 00:31:00,1824E-3,5C000400,-0724,0829,12124,026.7,045.4,0.258,759.1,01.16,0.508
2015-11-26 00:32:00,1743E-3,5C000400,-0724,0832,12193,026.7,045.4,0.259,759.4,01.16,0.508
2015-11-26 00:33:00,1704E-3,5C000400,-0724,0831,12134,026.7,045.4,0.259,759.2,01.16,0.508
2015-11-26 00:34:00,1845E-3,5C000400,-0724,0831,12136,026.7,045.4,0.258,759.4,01.16,0.508
2015-11-26 00:35:00,1818E-3,5C000400,-0724,0831,12074,026.7,045.4,0.259,759.4,01.16,0.508
2015-11-26 00:36:00,1767E-3,5C000400,-0724,0831,11971,026.7,045.4,0.258,759.2,01.16,0.508
2015-11-26 00:37:00,1838E-3,5C000400,-0724,0831,12075,026.7,045.4,0.258,759.5,01.16,0.508
2015-11-26 00:38:00,1851E-3,5C000400,-0724,0832,12260,026.7,045.4,0.258,759.2,01.16,0.508
2015-11-26 00:39:00,1766E-3,5C000400,-0724,0830,12150,026.7,045.4,0.258,759.5,01.16,0.508
2015-11-26 00:40:00,1827E-3,5C000400,-0724,0830,12296,026.7,045.4,0.259,759.4,01.16,0.508
2015-11-26 00:41:00,1769E-3,5C000400,-0724,0830,12190,026.7,045.4,0.258,759.5,01.16,0.508
2015-11-26 00:42:00,1982E-3,5C000400,-0724,0831,12039,026.7,045.4,0.258,759.4,01.16,0.508
2015-11-26 00:43:00,1820E-3,5C000400,-0724,0831,12196,026.7,045.4,0.258,759.3,01.16,0.508
2015-11-26 00:44:00,1808E-3,5C000400,-0724,0830,12120,026.8,045.4,0.258,759.2,01.16,0.508
2015-11-26 00:45:00,1600E-3,5C000400,-0724,0830,12346,026.7,045.4,0.258,759.2,01.16,0.508
2015-11-26 00:46:00,1631E-3,5C000400,-0724,0830,12177,026.7,045.4,0.258,759.2,01.16,0.508
2015-11-26 00:47:00,1602E-3,5C000400,-0724,0830,12071,026.7,045.4,0.258,759.2,01.16,0.508
2015-11-26 00:48:00,1675E-3,5C000400,-0724,0831,12414,026.7,045.4,0.258,759.2,01.16,0.508
2015-11-26 00:49:00,1651E-3,5C000400,-0724,0829,12124,026.8,045.4,0.258,759.0,01.16,0.508
2015-11-26 00:50:00,1789E-3,5C000400,-0724,0830,12102,026.7,045.4,0.258,759.3,01.16,0.508
2015-11-26 00:51:00,1852E-3,5C000400,-0724,0831,12197,026.8,045.4,0.258,759.2,01.16,0.508
2015-11-26 00:52:00,1795E-3,5C000400,-0724,0831,12171,026.7,045.4,0.258,759.4,01.16,0.508
2015-11-26 00:53:00,1872E-3,5C000400,-0724,0830,12061,026.8,045.4,0.258,759.3,01.16,0.508
2015-11-26 00:54:00,1878E-3,5C000400,-0724,0829,12176,026.7,045.4,0.258,759.3,01.16,0.508
2015-11-26 00:55:00,1788E-3,5C000400,-0724,0828,12123,026.8,045.4,0.258,758.9,01.16,0.508
2015-11-26 00:56:00,1759E-3,5C000400,-0724,0832,11273,026.7,045.4,0.258,759.3,01.16,0.508
2015-11-26 00:57:00,1699E-3,5C000400,-0724,0829,12209,026.7,045.4,0.258,759.3,01.16,0.508
2015-11-26 00:58:00,1724E-3,5C000400,-0724,0832,12156,026.7,045.4,0.259,759.2,01.16,0.508
2015-11-26 00:59:00,1776E-3,5C000400,-0724,0830,12092,026.8,045.4,0.258,759.4,01.16,0.508
2015-11-26 01:00:00,1816E-3,5C000400,-0724,0829,12172,026.7,045.4,0.258,759.5,01.16,0.508
2015-11-26 01:01:00,1775E-3,5C000400,-0724,0827,12236,026.7,045.4,0.258,759.3,01.16,0.508
2015-11-26 01:02:00,1667E-3,5C000400,-0724,0827,11105,026.7,045.4,0.258,759.3,01.16,0.508
2015-11-26 01:03:00,1758E-3,5C000400,-0724,0828,10053,026.7,045.4,0.258,759.1,01.16,0.508
2015-11-26 01:04:00,1694E-3,5C000400,-0724,0830,11275,026.7,045.4,0.258,759.1,01.16,0.508
2015-11-26 01:05:00,1809E-3,5C000400,-0724,0827,12292,026.7,045.4,0.258,759.1,01.16,0.508
2015-11-26 01:06:00,1774E-3,5C000400,-0724,0826,12591,026.7,045.4,0.258,758.9,01.16,0.508
2015-11-26 01:07:00,1732E-3,5C000400,-0724,0830,12264,026.7,045.4,0.258,759.1,01.16,0.508
2015-11-26 01:08:00,1808E-3,5C000400,-0724,0830,12113,026.7,045.4,0.258,759.2,01.16,0.508
2015-11-26 01:09:00,1684E-3,5C000400,-0724,0830,12252,026.7,045.4,0.258,759.2,01.16,0.508
2015-11-26 01:10:00,1724E-3,5C000400,-0724,0830,12365,026.7,045.4,0.258,758.9,01.16,0.508
2015-11-26 01:11:00,1662E-3,5C000400,-0724,0831,12100,026.7,045.4,0.258,759.0,01.16,0.508
2015-11-26 01:12:00,1790E-3,5C000400,-0724,0829,12100,026.7,045.4,0.258,758.8,01.16,0.508
2015-11-26 01:13:00,1879E-3,5C000400,-0724,0829,12296,026.7,045.4,0.258,758.9,01.16,0.508
2015-11-26 01:14:00,1888E-3,5C000400,-0724,0827,11266,026.7,045.4,0.258,758.8,01.16,0.508
2015-11-26 01:15:00,1895E-3,5C000400,-0724,0829,12304,026.7,045.4,0.258,759.0,01.16,0.508
2015-11-26 01:16:00,1847E-3,5C000400,-0724,0830,12206,026.7,045.4,0.258,759.1,01.16,0.508
2015-11-26 01:17:00,1800E-3,5C000400,-0724,0830,12143,026.7,045.4,0.258,759.0,01.16,0.508
2015-11-26 01:18:00,1745E-3,5C000400,-0724,0830,12198,026.7,045.4,0.258,759.2,01.16,0.508
2015-11-26 01:19:00,1853E-3,5C000400,-0724,0831,12469,026.7,045.4,0.258,759.2,01.16,0.508
2015-11-26 01:20:00,1816E-3,5C000410,-0724,0830,11348,026.7,045.4,0.258,759.2,01.16,0.508
2015-11-26 01:21:00,1717E-3,5C000400,-0724,0830,12222,026.7,045.4,0.258,759.2,01.16,0.508
2015-11-26 01:22:00,1817E-3,5C000400,-0724,0828,12459,026.7,045.4,0.258,759.2,01.16,0.508
2015-11-26 01:23:00,1842E-3,5C000400,-0724,0830,10975,026.7,045.4,0.258,759.0,01.16,0.508
2015-11-26 01:24:00,1957E-3,5C000400,-0724,0830,12033,026.7,045.4,0.258,759.3,01.16,0.508
2015-11-26 01:25:00,1664E-3,5C000400,-0724,0831,12006,026.7,045.4,0.258,759.0,01.16,0.508
2015-11-26 01:26:00,1687E-3,5C000400,-0724,0830,12209,026.7,045.4,0.258,759.1,01.16,0.508
2015-11-26 01:27:00,1835E-3,5C000400,-0724,0832,12040,026.7,045.4,0.258,759.3,01.16,0.508
2015-11-26 01:28:00,1749E-3,5C000400,-0724,0831,12281,026.7,045.4,0.258,759.2,01.16,0.508
2015-11-26 01:29:00,1638E-3,5C000400,-0724,0831,12109,026.7,045.4,0.258,759.3,01.16,0.508
2015-11-26 01:30:00,1893E-3,5C000400,-0724,0832,12145,026.7,045.4,0.258,759.3,01.16,0.508
2015-11-26 01:31:00,1714E-3,5C000400,-0724,0831,12214,026.7,045.4,0.258,759.3,01.16,0.508
2015-11-26 01:32:00,1723E-3,5C000400,-0724,0831,12058,026.7,045.4,0.259,759.2,01.16,0.508
2015-11-26 01:33:00,1755E-3,5C000400,-0724,0831,12225,026.7,045.4,0.259,759.3,01.16,0.508
2015-11-26 01:34:00,1824E-3,5C000400,-0724,0831,12109,026.7,045.4,0.258,759.2,01.16,0.508
2015-11-26 01:35:00,1750E-3,5C000400,-0724,0830,12270,026.7,045.4,0.258,759.1,01.16,0.508
2015-11-26 01:36:00,1839E-3,5C000400,-0724,0830,12233,026.7,045.4,0.258,759.1,01.16,0.508
2015-11-26 01:37:00,1801E-3,5C000400,-0724,0831,12096,026.7,045.4,0.258,759.1,01.16,0.508
2015-11-26 01:38:00,1848E-3,5C000400,-0724,0831,12261,026.7,045.4,0.258,759.0,01.16,0.508
2015-11-26 01:39:00,1834E-3,5C000400,-0724,0831,12095,026.7,045.4,0.258,759.0,01.16,0.508
2015-11-26 01:40:00,1770E-3,5C000400,-0724,0831,12296,026.7,045.4,0.258,759.2,01.16,0.508
2015-11-26 01:41:00,1782E-3,5C000400,-0724,0831,12281,026.7,045.4,0.258,759.1,01.16,0.508
2015-11-26 01:42:00,1865E-3,5C000400,-0724,0831,11973,026.7,045.4,0.258,759.1,01.16,0.508
2015-11-26 01:43:00,1841E-3,5C000400,-0724,0830,12136,026.7,045.4,0.258,759.1,01.16,0.508
2015-11-26 01:44:00,1859E-3,5C000400,-0724,0830,12198,026.7,045.4,0.258,759.0,01.16,0.508
2015-11-26 01:45:00,1832E-3,5C000400,-0724,0831,12230,026.7,045.4,0.258,758.9,01.16,0.508
2015-11-26 01:46:00,1956E-3,5C000400,-0724,0831,12163,026.7,045.4,0.258,759.0,01.16,0.508
2015-11-26 01:47:00,1799E-3,5C000400,-0724,0831,12232,026.7,045.4,0.258,758.9,01.16,0.508
2015-11-26 01:48:00,1807E-3,5C000400,-0724,0830,12176,026.7,045.4,0.258,759.0,01.16,0.508
2015-11-26 01:49:00,1601E-3,5C000400,-0724,0831,12183,026.7,045.4,0.258,758.9,01.16,0.508
2015-11-26 01:50:00,1647E-3,5C000400,-0724,0831,12131,026.7,045.4,0.258,758.9,01.16,0.508
2015-11-26 01:51:00,1799E-3,5C000400,-0724,0831,12094,026.7,045.4,0.258,758.9,01.16,0.508
2015-11-26 01:52:00,1796E-3,5C000400,-0724,0831,12245,026.7,045.4,0.258,758.9,01.16,0.508
2015-11-26 01:53:00,1712E-3,5C000400,-0724,0832,12177,026.7,045.4,0.258,758.9,01.16,0.508
2015-11-26 01:54:00,1674E-3,5C000400,-0724,0830,12152,026.7,045.4,0.258,759.0,01.16,0.508
2015-11-26 01:55:00,1792E-3,5C000400,-0724,0831,12091,026.7,045.4,0.258,758.9,01.16,0.508
2015-11-26 01:56:00,1823E-3,5C000400,-0724,0831,12081,026.7,045.4,0.258,758.9,01.16,0.508
2015-11-26 01:57:00,1719E-3,5C000400,-0724,0830,12209,026.7,045.4,0.258,758.7,01.16,0.508
2015-11-26 01:58:00,1707E-3,5C000400,-0724,0831,12217,026.7,045.4,0.258,758.7,01.16,0.508
2015-11-26 01:59:00,1837E-3,5C000400,-0724,0830,12258,026.7,045.4,0.258,758.8,01.16,0.508
2015-11-26 02:00:00,1790E-3,5C000400,-0724,0832,12184,026.7,045.4,0.258,758.7,01.16,0.508
2015-11-26 02:01:00,1694E-3,5C000400,-0724,0831,12097,026.7,045.4,0.258,758.7,01.16,0.508
2015-11-26 02:02:00,1755E-3,5C000400,-0724,0831,12093,026.7,045.4,0.258,758.8,01.16,0.508
2015-11-26 02:03:00,1823E-3,5C000400,-0724,0830,12198,026.7,045.4,0.258,758.8,01.16,0.508
2015-11-26 02:04:00,1894E-3,5C000400,-0724,0831,11937,026.7,045.4,0.258,758.9,01.16,0.508
2015-11-26 02:05:00,1616E-3,5C000400,-0724,0830,12048,026.7,045.4,0.258,758.8,01.16,0.508
2015-11-26 02:06:00,1748E-3,5C000400,-0724,0830,12082,026.7,045.4,0.258,758.8,01.16,0.508
2015-11-26 02:07:00,1744E-3,5C000400,-0724,0831,12260,026.7,045.4,0.258,758.9,01.16,0.508
2015-11-26 02:08:00,1743E-3,5C000400,-0724,0830,12146,026.7,045.4,0.258,759.0,01.16,0.508
2015-11-26 02:09:00,1889E-3,5C000400,-0724,0831,12063,026.7,045.4,0.258,758.9,01.16,0.508
2015-11-26 02:10:00,1818E-3,5C000400,-0724,0831,12304,026.8,045.4,0.258,758.8,01.16,0.508
2015-11-26 02:11:00,1754E-3,5C000400,-0724,0831,12099,026.7,045.4,0.258,758.9,01.16,0.508
2015-11-26 02:12:00,1658E-3,5C000400,-0724,0830,12106,026.8,045.4,0.258,758.9,01.16,0.508
2015-11-26 02:13:00,1709E-3,5C000400,-0724,0830,12219,026.8,045.4,0.258,759.0,01.16,0.508
2015-11-26 02:14:00,1848E-3,5C000400,-0724,0831,12147,026.7,045.4,0.258,759.0,01.16,0.508
2015-11-26 02:15:00,1673E-3,5C000400,-0724,0830,12107,026.7,045.4,0.258,758.9,01.16,0.508
2015-11-26 02:16:00,1701E-3,5C000400,-0724,0830,12071,026.8,045.4,0.258,758.9,01.16,0.508
2015-11-26 02:17:00,1757E-3,5C000400,-0724,0831,12330,026.8,045.4,0.258,759.0,01.16,0.508
2015-11-26 02:18:00,1829E-3,5C000400,-0724,0832,12239,026.7,045.4,0.258,759.0,01.16,0.508
2015-11-26 02:19:00,1625E-3,5C000400,-0724,0831,12146,026.8,045.4,0.258,759.0,01.16,0.508
2015-11-26 02:20:00,1703E-3,5C000400,-0724,0831,12284,026.8,045.4,0.258,758.9,01.16,0.508
2015-11-26 02:21:00,1706E-3,5C000400,-0724,0831,12196,026.8,045.4,0.258,758.9,01.16,0.508
2015-11-26 02:22:00,1754E-3,5C000400,-0724,0831,12261,026.8,045.4,0.258,758.8,01.16,0.508
2015-11-26 02:23:00,1626E-3,5C000400,-0724,0831,12185,026.8,045.4,0.258,758.8,01.16,0.508
2015-11-26 02:24:00,1829E-3,5C000400,-0724,0830,12182,026.8,045.4,0.258,758.9,01.16,0.508
2015-11-26 02:25:00,1654E-3,5C000400,-0724,0830,12254,026.8,045.4,0.258,758.6,01.16,0.508
2015-11-26 02:26:00,1793E-3,5C000400,-0724,0831,12266,026.8,045.4,0.258,758.6,01.16,0.508
2015-11-26 02:27:00,1843E-3,5C000400,-0724,0830,12293,026.8,045.4,0.258,758.6,01.16,0.508
2015-11-26 02:28:00,1925E-3,5C000400,-0724,0832,12217,026.8,045.4,0.258,758.3,01.16,0.508
2015-11-26 02:29:00,1897E-3,5C000400,-0724,0830,12256,026.8,045.4,0.258,758.5,01.16,0.508
2015-11-26 02:30:00,1718E-3,5C000400,-0724,0830,12273,026.8,045.4,0.258,758.6,01.16,0.508
2015-11-26 02:31:00,1758E-3,5C000400,-0724,0831,12260,026.8,045.4,0.258,758.4,01.16,0.508
2015-11-26 02:32:00,1814E-3,5C000400,-0724,0831,12223,026.8,045.4,0.259,758.7,01.16,0.508
2015-11-26 02:33:00,1815E-3,5C000400,-0724,0830,12186,026.8,045.4,0.258,758.8,01.16,0.508
2015-11-26 02:34:00,1880E-3,5C000400,-0724,0831,12262,026.8,045.4,0.258,758.7,01.16,0.508
2015-11-26 02:35:00,1755E-3,5C000400,-0724,0831,12178,026.8,045.4,0.259,758.8,01.16,0.508
2015-11-26 02:36:00,1770E-3,5C000400,-0724,0831,12149,026.8,045.4,0.258,758.7,01.16,0.508
2015-11-26 02:37:00,1734E-3,5C000400,-0724,0831,12208,026.8,045.4,0.258,758.8,01.16,0.508
2015-11-26 02:38:00,1849E-3,5C000400,-0724,0830,12249,026.8,045.4,0.258,758.9,01.16,0.508
2015-11-26 02:39:00,1875E-3,5C000400,-0724,0831,12210,026.8,045.4,0.258,758.7,01.16,0.508
2015-11-26 02:40:00,1926E-3,5C000400,-0724,0830,12234,026.8,045.4,0.258,758.9,01.16,0.508
2015-11-26 02:41:00,1723E-3,5C000400,-0724,0830,12172,026.8,045.4,0.258,759.0,01.16,0.508
2015-11-26 02:42:00,1871E-3,5C000400,-0724,0830,12302,026.8,045.4,0.258,759.1,01.16,0.508
2015-11-26 02:43:00,1731E-3,5C000400,-0724,0830,12270,026.8,045.4,0.258,759.0,01.16,0.508
2015-11-26 02:44:00,1846E-3,5C000400,-0724,0831,12238,026.8,045.4,0.258,759.0,01.16,0.508
2015-11-26 02:45:00,1750E-3,5C000400,-0724,0830,12211,026.8,045.4,0.258,759.1,01.16,0.508
2015-11-26 02:46:00,1739E-3,5C000400,-0724,0830,12249,026.8,045.4,0.258,759.1,01.16,0.508
2015-11-26 02:47:00,1807E-3,5C000400,-0724,0832,12236,026.8,045.4,0.258,759.0,01.16,0.508
2015-11-26 02:48:00,1663E-3,5C000400,-0724,0830,12076,026.9,045.4,0.258,758.8,01.16,0.508
2015-11-26 02:49:00,1852E-3,5C000400,-0724,0831,12221,026.9,045.4,0.258,759.0,01.16,0.508
2015-11-26 02:50:00,1860E-3,5C000400,-0724,0830,12244,026.8,045.4,0.258,759.0,01.16,0.508
2015-11-26 02:51:00,1713E-3,5C000400,-0724,0830,12266,026.9,045.4,0.258,759.1,01.16,0.508
2015-11-26 02:52:00,1823E-3,5C000400,-0724,0831,12184,026.8,045.4,0.258,759.1,01.16,0.508
2015-11-26 02:53:00,1771E-3,5C000400,-0724,0831,12099,026.9,045.4,0.258,759.2,01.16,0.508
2015-11-26 02:54:00,1790E-3,5C000400,-0724,0831,12146,026.9,045.4,0.258,759.1,01.16,0.508
2015-11-26 02:55:00,1709E-3,5C000400,-0724,0831,12183,026.9,045.4,0.258,759.0,01.16,0.508
2015-11-26 02:56:00,1754E-3,5C000400,-0724,0831,12134,026.9,045.4,0.258,758.9,01.16,0.508
2015-11-26 02:57:00,1841E-3,5C000400,-0724,0831,12086,026.9,045.4,0.258,759.1,01.16,0.508
2015-11-26 02:58:00,1876E-3,5C000400,-0724,0831,12229,026.9,045.4,0.258,759.0,01.16,0.508
2015-11-26 02:59:00,1801E-3,5C000400,-0724,0831,12213,026.9,045.4,0.258,759.0,01.16,0.508
2015-11-26 03:00:00,1656E-3,5C000400,-0724,0831,12050,026.9,045.4,0.258,758.9,01.16,0.508
2015-11-26 03:01:00,1851E-3,5C000400,-0724,0831,12228,026.9,045.4,0.258,758.9,01.16,0.508
2015-11-26 03:02:00,1739E-3,5C000400,-0724,0831,12060,026.9,045.4,0.258,759.0,01.16,0.508
2015-11-26 03:03:00,1703E-3,5C000400,-0724,0831,12178,026.9,045.4,0.258,758.9,01.16,0.508
2015-11-26 03:04:00,1820E-3,5C000400,-0724,0830,12276,026.9,045.4,0.258,759.1,01.16,0.508
2015-11-26 03:05:00,1752E-3,5C000400,-0724,0830,12206,026.9,045.4,0.258,758.9,01.16,0.508
2015-11-26 03:06:00,1857E-3,5C000400,-0724,0831,12203,026.9,045.4,0.257,758.8,01.16,0.508
2015-11-26 03:07:00,1771E-3,5C000400,-0724,0831,12317,026.9,045.4,0.258,759.1,01.16,0.508
2015-11-26 03:08:00,1792E-3,5C000400,-0724,0830,12252,026.9,045.4,0.258,759.1,01.16,0.508
2015-11-26 03:09:00,1735E-3,5C000400,-0724,0831,12248,026.9,045.4,0.258,759.1,01.16,0.508
2015-11-26 03:10:00,1854E-3,5C000400,-0724,0830,12172,026.9,045.4,0.258,759.1,01.16,0.508
2015-11-26 03:11:00,1771E-3,5C000400,-0724,0831,12227,026.9,045.4,0.257,759.1,01.16,0.508
2015-11-26 03:12:00,1876E-3,5C000400,-0724,0830,12227,026.9,045.4,0.258,758.9,01.16,0.508
2015-11-26 03:13:00,1915E-3,5C000400,-0724,0830,12151,026.9,045.4,0.258,759.1,01.16,0.508
2015-11-26 03:14:00,1740E-3,5C000400,-0724,0830,12315,026.9,045.4,0.258,759.3,01.16,0.508
2015-11-26 03:15:00,1783E-3,5C000400,-0724,0831,12226,026.9,045.4,0.258,759.3,01.16,0.508
2015-11-26 03:16:00,1691E-3,5C000400,-0724,0830,12202,026.9,045.4,0.258,759.2,01.16,0.508
2015-11-26 03:17:00,1747E-3,5C000400,-0724,0831,12121,027.0,045.4,0.258,758.8,01.16,0.508
2015-11-26 03:18:00,1948E-3,5C000400,-0724,0831,12089,026.9,045.4,0.258,758.3,01.16,0.508
2015-11-26 03:19:00,1793E-3,5C000400,-0724,0831,12171,027.0,045.4,0.258,758.7,01.16,0.508
2015-11-26 03:20:00,1730E-3,5C000400,-0724,0831,12203,027.0,045.4,0.258,759.0,01.16,0.508
2015-11-26 03:21:00,1791E-3,5C000400,-0724,0830,12123,026.9,045.4,0.258,759.1,01.16,0.508
2015-11-26 03:22:00,1624E-3,5C000400,-0724,0831,12029,026.9,045.4,0.257,759.1,01.16,0.508
2015-11-26 03:23:00,1728E-3,5C000400,-0724,0830,12259,027.0,045.4,0.258,758.6,01.16,0.508
2015-11-26 03:24:00,1743E-3,5C000400,-0724,0830,12214,026.9,045.4,0.258,758.1,01.16,0.508
2015-11-26 03:25:00,1829E-3,5C000400,-0724,0831,12095,027.0,045.4,0.258,758.6,01.16,0.508
2015-11-26 03:26:00,1810E-3,5C000400,-0724,0831,12206,027.0,045.4,0.258,758.3,01.16,0.508
2015-11-26 03:27:00,1740E-3,5C000400,-0724,0831,12198,027.0,045.4,0.257,759.1,01.16,0.508
2015-11-26 03:28:00,1668E-3,5C000400,-0724,0831,12135,027.0,045.4,0.258,759.2,01.16,0.508
2015-11-26 03:29:00,1728E-3,5C000400,-0724,0830,12266,027.0,045.4,0.258,759.2,01.16,0.508
2015-11-26 03:30:00,1784E-3,5C000400,-0724,0831,12180,027.0,045.4,0.258,759.0,01.16,0.508
2015-11-26 03:31:00,1783E-3,5C000400,-0724,0831,12203,027.0,045.4,0.258,759.1,01.16,0.508
2015-11-26 03:32:00,1849E-3,5C000400,-0724,0831,12160,027.0,045.4,0.258,759.2,01.16,0.508
2015-11-26 03:33:00,1748E-3,5C000400,-0724,0830,12138,027.0,045.4,0.258,758.8,01.16,0.508
2015-11-26 03:34:00,1988E-3,5C000400,-0724,0831,12101,027.0,045.4,0.258,758.3,01.16,0.508
2015-11-26 03:35:00,1690E-3,5C000400,-0724,0830,12254,027.0,045.4,0.258,758.6,01.16,0.508
2015-11-26 03:36:00,1783E-3,5C000400,-0724,0829,12160,027.0,045.4,0.258,758.9,01.16,0.508
2015-11-26 03:37:00,1789E-3,5C000400,-0724,0830,12178,027.0,045.4,0.258,758.9,01.16,0.508
2015-11-26 03:38:00,1839E-3,5C000400,-0724,0831,12220,027.0,045.4,0.258,758.8,01.16,0.508
2015-11-26 03:39:00,1768E-3,5C000400,-0724,0831,12245,027.0,045.4,0.258,758.5,01.16,0.508
2015-11-26 03:40:00,1637E-3,5C000400,-0724,0829,12133,027.0,045.4,0.257,757.9,01.16,0.508
2015-11-26 03:41:00,1665E-3,5C000400,-0724,0830,12162,027.0,045.4,0.258,758.5,01.16,0.508
2015-11-26 03:42:00,1815E-3,5C000400,-0724,0831,12176,027.0,045.4,0.258,758.7,01.16,0.508
2015-11-26 03:43:00,1747E-3,5C000400,-0724,0831,12264,027.1,045.4,0.258,758.9,01.16,0.508
2015-11-26 03:44:00,1723E-3,5C000400,-0724,0831,12213,027.0,045.4,0.258,759.1,01.16,0.508
2015-11-26 03:45:00,1767E-3,5C000400,-0724,0830,12217,027.0,045.4,0.257,758.5,01.16,0.508
2015-11-26 03:46:00,1803E-3,5C000400,-0724,0831,12097,027.0,045.4,0.258,758.7,01.16,0.508
2015-11-26 03:47:00,1873E-3,5C000400,-0724,0830,12147,027.0,045.4,0.258,759.0,01.16,0.508
2015-11-26 03:48:00,1658E-3,5C000400,-0724,0830,12264,027.0,045.4,0.258,759.1,01.16,0.508
2015-11-26 03:49:00,1725E-3,5C000400,-0724,0831,12273,027.1,045.4,0.257,759.2,01.16,0.508
2015-11-26 03:50:00,1836E-3,5C000400,-0724,0831,12209,027.1,045.4,0.257,759.0,01.16,0.508
2015-11-26 03:51:00,1762E-3,5C000400,-0724,0830,12240,027.0,045.4,0.258,759.3,01.16,0.508
2015-11-26 03:52:00,1864E-3,5C000400,-0724,0831,12023,027.1,045.4,0.258,759.3,01.16,0.508
2015-11-26 03:53:00,1894E-3,5C000400,-0724,0830,12179,027.1,045.4,0.258,759.2,01.16,0.508
2015-11-26 03:54:00,1795E-3,5C000400,-0724,0830,12234,027.1,045.4,0.258,759.2,01.16,0.508
2015-11-26 03:55:00,1784E-3,5C000400,-0724,0831,12215,027.1,045.4,0.257,759.2,01.16,0.508
2015-11-26 03:56:00,1716E-3,5C000400,-0724,0831,12186,027.1,045.4,0.258,758.9,01.16,0.508
2015-11-26 03:57:00,1722E-3,5C000400,-0724,0831,12103,027.1,045.4,0.258,759.0,01.16,0.508
2015-11-26 03:58:00,1826E-3,5C000400,-0724,0831,12122,027.1,045.4,0.258,759.2,01.16,0.508
2015-11-26 03:59:00,1760E-3,5C000400,-0724,0831,12227,027.1,045.4,0.257,759.2,01.16,0.508
2015-11-26 04:00:00,1761E-3,5C000400,-0724,0830,12126,027.1,045.4,0.257,759.3,01.16,0.508
2015-11-26 04:01:00,1805E-3,5C000400,-0724,0830,12149,027.1,045.4,0.258,759.3,01.16,0.508
2015-11-26 04:02:00,1746E-3,5C000400,-0724,0831,12218,027.1,045.4,0.258,759.2,01.16,0.508
2015-11-26 04:03:00,1770E-3,5C000400,-0724,0831,12089,027.1,045.4,0.258,759.1,01.16,0.508
2015-11-26 04:04:00,1803E-3,5C000400,-0724,0831,12288,027.1,045.4,0.257,759.1,01.16,0.508
2015-11-26 04:05:00,1734E-3,5C000400,-0724,0831,12226,027.1,045.4,0.258,759.0,01.16,0.508
2015-11-26 04:06:00,1816E-3,5C000400,-0724,0831,12226,027.1,045.4,0.258,759.0,01.16,0.508
2015-11-26 04:07:00,1802E-3,5C000400,-0724,0830,12178,027.1,045.4,0.257,758.6,01.16,0.508
2015-11-26 04:08:00,1706E-3,5C000400,-0724,0831,12110,027.0,045.4,0.258,758.8,01.16,0.508
2015-11-26 04:09:00,1709E-3,5C000400,-0724,0832,12221,027.0,045.4,0.257,758.6,01.16,0.508
2015-11-26 04:10:00,1677E-3,5C000400,-0724,0831,12231,027.0,045.4,0.258,758.9,01.16,0.508
2015-11-26 04:11:00,1748E-3,5C000400,-0724,0831,12120,027.0,045.4,0.258,758.9,01.16,0.508
2015-11-26 04:12:00,1767E-3,5C000400,-0724,0831,12248,027.0,045.4,0.258,758.8,01.16,0.508
2015-11-26 04:13:00,1878E-3,5C000400,-0724,0831,12174,026.9,045.4,0.258,758.9,01.16,0.508
2015-11-26 04:14:00,1852E-3,5C000400,-0724,0831,12250,026.9,045.4,0.258,758.8,01.16,0.508
2015-11-26 04:15:00,1857E-3,5C000400,-0724,0831,12263,026.9,045.4,0.258,758.6,01.16,0.508
2015-11-26 04:16:00,1855E-3,5C000400,-0724,0830,12112,026.9,045.4,0.258,758.5,01.16,0.508
2015-11-26 04:17:00,1795E-3,5C000400,-0724,0831,12121,026.9,045.4,0.258,758.6,01.16,0.508
2015-11-26 04:18:00,1836E-3,5C000400,-0724,0831,12269,026.9,045.4,0.257,758.4,01.16,0.508
2015-11-26 04:19:00,1787E-3,5C000400,-0724,0831,12317,026.9,045.4,0.258,758.5,01.16,0.508
2015-11-26 04:20:00,1751E-3,5C000400,-0724,0832,12225,026.9,045.4,0.258,758.3,01.16,0.508